M I D A S
Marine Information and Data Acquisition System
Tripno 62 of the Zeeleeuw from 2001-08-30 06:05:14 to 2001-08-30 14:20:00
Back to CruiseResearch ActivitiesStationsMapUnderway DataData graphs

EquipmentUnitsComment
TimeDGPSUTC
LatitudeDGPSDM.mWGS84
LongitudeDGPSDM.mWGS84
TemperatureSBE03/SBE38deg celciusITS90
ConductivitySBE21S/mITS90
SalinitySBE21 Practical Salinity Units
ChlorophylAChelsea fluorimeterg/lCalibrated in Aceton
Missing or incorrect values are displayed as -999
Sea surface data collected by the RV Zeeleeuw from 2001-08-30 06:05:14 to 2001-08-30 14:20:00
Time Latitude Longitude Temperature Conductivity Salinity ChlorophylA
2001-08-30 06:06:19 51°13.677 2°55.922 -999 -999 -999  
2001-08-30 06:07:19 51°13.676 2°55.922 -999 -999 -999  
2001-08-30 06:08:19 51°13.676 2°55.923 -999 -999 -999  
2001-08-30 06:09:19 51°13.676 2°55.923 -999 -999 -999  
2001-08-30 06:10:19 51°13.676 2°55.923 -999 -999 -999  
2001-08-30 06:11:19 51°13.676 2°55.923 -999 -999 -999  
2001-08-30 06:12:19 51°13.676 2°55.923 -999 -999 -999  
2001-08-30 06:13:19 51°13.677 2°55.923 -999 -999 -999  
2001-08-30 06:14:19 51°13.677 2°55.924 -999 -999 -999  
2001-08-30 06:15:19 51°13.677 2°55.924 -999 -999 -999  
2001-08-30 06:16:19 51°13.677 2°55.924 -999 -999 -999  
2001-08-30 06:17:19 51°13.677 2°55.924 -999 -999 -999  
2001-08-30 06:18:19 51°13.677 2°55.924 -999 -999 -999  
2001-08-30 06:19:19 51°13.677 2°55.924 -999 -999 -999  
2001-08-30 06:20:19 51°13.677 2°55.924 -999 -999 -999  
2001-08-30 06:21:19 51°13.677 2°55.924 -999 -999 -999  
2001-08-30 06:22:19 51°13.677 2°55.924 -999 -999 -999  
2001-08-30 06:23:19 51°13.677 2°55.923 -999 -999 -999  
2001-08-30 06:24:19 51°13.677 2°55.924 -999 -999 -999  
2001-08-30 06:25:19 51°13.677 2°55.924 -999 -999 -999  
2001-08-30 06:26:19 51°13.677 2°55.924 -999 -999 -999  
2001-08-30 06:27:19 51°13.677 2°55.923 -999 -999 -999  
2001-08-30 06:28:19 51°13.677 2°55.923 -999 -999 -999  
2001-08-30 06:29:19 51°13.676 2°55.923 -999 -999 -999  
2001-08-30 06:30:19 51°13.676 2°55.923 -999 -999 -999  
2001-08-30 06:31:19 51°13.676 2°55.923 -999 -999 -999  
2001-08-30 06:32:19 51°13.676 2°55.923 -999 -999 -999  
2001-08-30 06:33:19 51°13.676 2°55.923 -999 -999 -999  
2001-08-30 06:34:19 51°13.676 2°55.923 -999 -999 -999  
2001-08-30 06:35:19 51°13.676 2°55.923 -999 -999 -999  
2001-08-30 06:36:19 51°13.676 2°55.923 -999 -999 -999  
2001-08-30 06:37:20 51°13.676 2°55.923 -999 -999 -999  
2001-08-30 06:38:30 51°13.676 2°55.924 -999 -999 -999  
2001-08-30 06:39:30 51°13.676 2°55.924 -999 -999 -999  
2001-08-30 06:40:30 51°13.676 2°55.924 -999 -999 -999  
2001-08-30 06:41:30 51°13.676 2°55.924 -999 -999 -999  
2001-08-30 06:42:30 51°13.676 2°55.924 -999 -999 -999  
2001-08-30 06:43:24 51°13.676 2°55.924 -999 -999 -999  
2001-08-30 06:44:24 51°13.676 2°55.924 -999 -999 -999  
2001-08-30 06:45:24 51°13.677 2°55.924 -999 -999 -999  
2001-08-30 06:46:26 51°13.677 2°55.924 -999 -999 -999  
2001-08-30 06:47:26 51°13.677 2°55.924 -999 -999 -999  
2001-08-30 06:48:26 51°13.676 2°55.924 -999 -999 -999  
2001-08-30 06:49:26 51°13.677 2°55.924 -999 -999 -999  
2001-08-30 06:50:25 51°13.676 2°55.924 -999 -999 -999  
2001-08-30 06:51:24 51°13.676 2°55.924 -999 -999 -999  
2001-08-30 06:52:24 51°13.676 2°55.923 -999 -999 -999  
2001-08-30 06:53:26 51°13.676 2°55.923 -999 -999 -999  
2001-08-30 06:54:24 51°13.676 2°55.923 -999 -999 -999  
2001-08-30 06:55:24 51°13.676 2°55.924 -999 -999 -999  
2001-08-30 06:56:26 51°13.676 2°55.924 -999 -999 -999  
2001-08-30 06:57:26 51°13.676 2°55.924 -999 -999 -999  
2001-08-30 06:58:24 51°13.676 2°55.924 -999 -999 -999  
2001-08-30 06:59:24 51°13.676 2°55.924 -999 -999 -999  
2001-08-30 07:00:26 51°13.675 2°55.924 -999 -999 -999  
2001-08-30 07:01:24 51°13.674 2°55.924 -999 -999 -999  
2001-08-30 07:02:24 51°13.674 2°55.917 -999 -999 -999  
2001-08-30 07:03:24 51°13.672 2°55.921 -999 -999 -999  
2001-08-30 07:04:26 51°13.692 2°55.854 -999 -999 -999  
2001-08-30 07:05:26 51°13.708 2°55.755 -999 -999 -999  
2001-08-30 07:06:24 51°13.716 2°55.716 -999 -999 -999  
2001-08-30 07:07:24 51°13.797 2°55.681 -999 -999 -999  
2001-08-30 07:08:26 51°13.907 2°55.583 -999 -999 -999  
2001-08-30 07:09:26 51°14.041 2°55.481 -999 -999 -999  
2001-08-30 07:10:26 51°14.143 2°55.408 -999 -999 -999  
2001-08-30 07:11:26 51°14.233 2°55.312 -999 -999 -999  
2001-08-30 07:12:26 51°14.329 2°55.134 -999 -999 -999  
2001-08-30 07:13:26 51°14.388 2°54.905 -999 -999 -999  
2001-08-30 07:14:24 51°14.406 2°54.631 -999 -999 -999  
2001-08-30 07:15:26 51°14.402 2°54.305 -999 -999 -999  
2001-08-30 07:16:26 51°14.318 2°54.018 -999 -999 -999  
2001-08-30 07:17:26 51°14.217 2°53.739 -999 -999 -999  
2001-08-30 07:18:26 51°14.109 2°53.446 -999 -999 -999  
2001-08-30 07:19:26 51°13.995 2°53.132 -999 -999 -999  
2001-08-30 07:20:26 51°13.874 2°52.814 -999 -999 -999  
2001-08-30 07:21:24 51°13.765 2°52.499 -999 -999 -999  
2001-08-30 07:22:26 51°13.644 2°52.166 -999 -999 -999  
2001-08-30 07:23:26 51°13.526 2°51.847 -999 -999 -999  
2001-08-30 07:24:26 51°13.408 2°51.525 -999 -999 -999  
2001-08-30 07:25:24 51°13.292 2°51.214 -999 -999 -999  
2001-08-30 07:26:26 51°13.172 2°50.879 -999 -999 -999  
2001-08-30 07:27:26 51°13.06 2°50.553 -999 -999 -999  
2001-08-30 07:28:26 51°12.938 2°50.237 -999 -999 -999  
2001-08-30 07:29:26 51°12.817 2°49.92 -999 -999 -999  
2001-08-30 07:30:26 51°12.695 2°49.605 -999 -999 -999  
2001-08-30 07:31:26 51°12.573 2°49.287 -999 -999 -999  
2001-08-30 07:32:26 51°12.461 2°48.963 -999 -999 -999  
2001-08-30 07:33:26 51°12.351 2°48.64 -999 -999 -999  
2001-08-30 07:34:26 51°12.233 2°48.325 -999 -999 -999  
2001-08-30 07:35:26 51°12.126 2°47.998 -999 -999 -999  
2001-08-30 07:36:26 51°12.018 2°47.673 -999 -999 -999  
2001-08-30 07:37:26 51°11.913 2°47.349 -999 -999 -999  
2001-08-30 07:38:26 51°11.805 2°47.029 -999 -999 -999  
2001-08-30 07:39:26 51°11.699 2°46.708 -999 -999 -999  
2001-08-30 07:40:26 51°11.595 2°46.383 -999 -999 -999  
2001-08-30 07:41:26 51°11.492 2°46.059 -999 -999 -999  
2001-08-30 07:42:26 51°11.385 2°45.737 -999 -999 -999  
2001-08-30 07:43:26 51°11.283 2°45.412 -999 -999 -999  
2001-08-30 07:44:26 51°11.179 2°45.092 -999 -999 -999  
2001-08-30 07:45:26 51°11.082 2°44.767 -999 -999 -999  
2001-08-30 07:46:26 51°10.98 2°44.445 -999 -999 -999  
2001-08-30 07:47:26 51°10.88 2°44.122 -999 -999 -999  
2001-08-30 07:48:26 51°10.785 2°43.797 -999 -999 -999  
2001-08-30 07:49:26 51°10.688 2°43.474 -999 -999 -999  
2001-08-30 07:50:26 51°10.591 2°43.151 -999 -999 -999  
2001-08-30 07:51:26 51°10.494 2°42.83 -999 -999 -999  
2001-08-30 07:52:26 51°10.399 2°42.507 -999 -999 -999  
2001-08-30 07:53:26 51°10.32 2°42.175 -999 -999 -999  
2001-08-30 07:54:26 51°10.265 2°41.831 -999 -999 -999  
2001-08-30 07:55:26 51°10.217 2°41.483 -999 -999 -999  
2001-08-30 07:56:26 51°10.168 2°41.134 -999 -999 -999  
2001-08-30 07:57:26 51°10.118 2°40.787 -999 -999 -999  
2001-08-30 07:58:26 51°10.061 2°40.442 -999 -999 -999  
2001-08-30 07:59:26 51°10.008 2°40.096 -999 -999 -999  
2001-08-30 08:00:26 51°9.956 2°39.749 -999 -999 -999  
2001-08-30 08:01:26 51°9.9 2°39.404 -999 -999 -999  
2001-08-30 08:02:26 51°9.842 2°39.059 -999 -999 -999  
2001-08-30 08:03:26 51°9.783 2°38.717 -999 -999 -999  
2001-08-30 08:04:26 51°9.722 2°38.378 -999 -999 -999  
2001-08-30 08:05:26 51°9.663 2°38.038 -999 -999 -999  
2001-08-30 08:06:26 51°9.611 2°37.697 -999 -999 -999  
2001-08-30 08:07:24 51°9.558 2°37.369 -999 -999 -999  
2001-08-30 08:08:26 51°9.51 2°37.016 -999 -999 -999  
2001-08-30 08:09:26 51°9.458 2°36.676 -999 -999 -999  
2001-08-30 08:10:26 51°9.397 2°36.34 -999 -999 -999  
2001-08-30 08:11:24 51°9.34 2°36.016 -999 -999 -999  
2001-08-30 08:12:26 51°9.287 2°35.666 -999 -999 -999  
2001-08-30 08:13:26 51°9.238 2°35.325 -999 -999 -999  
2001-08-30 08:14:26 51°9.188 2°34.986 -999 -999 -999  
2001-08-30 08:15:24 51°9.14 2°34.66 -999 -999 -999  
2001-08-30 08:16:26 51°9.084 2°34.315 -999 -999 -999  
2001-08-30 08:17:26 51°9.035 2°33.978 -999 -999 -999  
2001-08-30 08:18:26 51°9.085 2°33.674 -999 -999 -999  
2001-08-30 08:19:24 51°9.265 2°33.728 -999 -999 -999  
2001-08-30 08:20:26 51°9.412 2°34.036 -999 -999 -999  
2001-08-30 08:21:26 51°9.577 2°34.303 -999 -999 -999  
2001-08-30 08:22:26 51°9.747 2°34.56 -999 -999 -999  
2001-08-30 08:23:26 51°9.933 2°34.781 -999 -999 -999  
2001-08-30 08:24:26 51°10.116 2°35.007 -999 -999 -999  
2001-08-30 08:25:26 51°10.305 2°35.225 -999 -999 -999  
2001-08-30 08:26:24 51°10.486 2°35.435 -999 -999 -999  
2001-08-30 08:27:26 51°10.678 2°35.669 -999 -999 -999  
2001-08-30 08:28:26 51°10.862 2°35.902 -999 -999 -999  
2001-08-30 08:29:26 51°11.052 2°36.119 -999 -999 -999  
2001-08-30 08:30:26 51°11.23 2°36.361 -999 -999 -999  
2001-08-30 08:31:26 51°11.409 2°36.599 -999 -999 -999  
2001-08-30 08:32:26 51°11.595 2°36.823 -999 -999 -999  
2001-08-30 08:33:26 51°11.787 2°37.029 -999 -999 -999  
2001-08-30 08:34:26 51°11.98 2°37.234 -999 -999 -999  
2001-08-30 08:35:26 51°12.169 2°37.447 -999 -999 -999  
2001-08-30 08:36:26 51°12.374 2°37.613 -999 -999 -999  
2001-08-30 08:37:24 51°12.562 2°37.811 -999 -999 -999  
2001-08-30 08:38:26 51°12.76 2°38.029 -999 -999 -999  
2001-08-30 08:39:26 51°12.947 2°38.253 -999 -999 -999  
2001-08-30 08:40:26 51°13.125 2°38.498 -999 -999 -999  
2001-08-30 08:41:26 51°13.308 2°38.734 -999 -999 -999  
2001-08-30 08:42:26 51°13.523 2°38.88 -999 -999 -999  
2001-08-30 08:43:26 51°13.746 2°38.976 -999 -999 -999  
2001-08-30 08:44:26 51°13.964 2°38.972 -999 -999 -999  
2001-08-30 08:45:26 51°14.099 2°38.722 -999 -999 -999  
2001-08-30 08:46:26 51°14.124 2°38.39 -999 -999 -999  
2001-08-30 08:47:26 51°14.049 2°38.069 -999 -999 -999  
2001-08-30 08:48:26 51°13.957 2°37.758 -999 -999 -999  
2001-08-30 08:49:26 51°13.866 2°37.453 -999 -999 -999  
2001-08-30 08:50:26 51°13.779 2°37.146 -999 -999 -999  
2001-08-30 08:51:26 51°13.686 2°36.845 -999 -999 -999  
2001-08-30 08:52:26 51°13.602 2°36.539 -999 -999 -999  
2001-08-30 08:53:26 51°13.517 2°36.232 -999 -999 -999  
2001-08-30 08:54:26 51°13.432 2°35.925 -999 -999 -999  
2001-08-30 08:55:26 51°13.35 2°35.616 -999 -999 -999  
2001-08-30 08:56:26 51°13.266 2°35.31 -999 -999 -999  
2001-08-30 08:57:26 51°13.183 2°35.005 -999 -999 -999  
2001-08-30 08:58:26 51°13.098 2°34.702 -999 -999 -999  
2001-08-30 08:59:26 51°13.018 2°34.394 -999 -999 -999  
2001-08-30 09:00:26 51°12.934 2°34.088 -999 -999 -999  
2001-08-30 09:01:26 51°12.848 2°33.783 -999 -999 -999  
2001-08-30 09:02:25 51°12.757 2°33.489 -999 -999 -999  
2001-08-30 09:03:26 51°12.668 2°33.18 -999 -999 -999  
2001-08-30 09:04:26 51°12.582 2°32.875 -999 -999 -999  
2001-08-30 09:05:26 51°12.505 2°32.565 -999 -999 -999  
2001-08-30 09:06:26 51°12.422 2°32.257 -999 -999 -999  
2001-08-30 09:07:26 51°12.336 2°31.951 -999 -999 -999  
2001-08-30 09:08:26 51°12.252 2°31.644 -999 -999 -999  
2001-08-30 09:09:26 51°12.168 2°31.334 -999 -999 -999  
2001-08-30 09:10:26 51°12.083 2°31.027 -999 -999 -999  
2001-08-30 09:11:26 51°11.997 2°30.72 -999 -999 -999  
2001-08-30 09:12:26 51°11.91 2°30.413 -999 -999 -999  
2001-08-30 09:13:26 51°11.829 2°30.101 -999 -999 -999  
2001-08-30 09:14:26 51°11.748 2°29.79 -999 -999 -999  
2001-08-30 09:15:26 51°11.662 2°29.485 -999 -999 -999  
2001-08-30 09:16:26 51°11.598 2°29.17 -999 -999 -999  
2001-08-30 09:17:26 51°11.552 2°28.853 -999 -999 -999  
2001-08-30 09:18:26 51°11.498 2°28.549 -999 -999 -999  
2001-08-30 09:19:26 51°11.444 2°28.248 -999 -999 -999  
2001-08-30 09:20:24 51°11.386 2°27.953 -999 -999 -999  
2001-08-30 09:21:26 51°11.33 2°27.631 -999 -999 -999  
2001-08-30 09:22:26 51°11.281 2°27.316 -999 -999 -999  
2001-08-30 09:23:26 51°11.229 2°27.002 -999 -999 -999  
2001-08-30 09:24:26 51°11.18 2°26.684 -999 -999 -999  
2001-08-30 09:25:26 51°11.128 2°26.366 -999 -999 -999  
2001-08-30 09:26:26 51°11.074 2°26.054 -999 -999 -999  
2001-08-30 09:27:26 51°11.021 2°25.742 -999 -999 -999  
2001-08-30 09:28:26 51°11.03 2°25.438 -999 -999 -999  
2001-08-30 09:29:26 51°11.216 2°25.316 -999 -999 -999  
2001-08-30 09:30:26 51°11.447 2°25.356 -999 -999 -999  
2001-08-30 09:31:26 51°11.681 2°25.358 -999 -999 -999  
2001-08-30 09:32:26 51°11.915 2°25.366 -999 -999 -999  
2001-08-30 09:33:26 51°12.15 2°25.38 -999 -999 -999  
2001-08-30 09:34:26 51°12.383 2°25.391 -999 -999 -999  
2001-08-30 09:35:26 51°12.613 2°25.444 -999 -999 -999  
2001-08-30 09:36:26 51°12.827 2°25.596 -999 -999 -999  
2001-08-30 09:37:26 51°13.001 2°25.851 -999 -999 -999  
2001-08-30 09:38:26 51°13.164 2°26.133 -999 -999 -999  
2001-08-30 09:39:26 51°13.327 2°26.413 -999 -999 -999  
2001-08-30 09:40:26 51°13.486 2°26.701 -999 -999 -999  
2001-08-30 09:41:26 51°13.647 2°26.982 -999 -999 -999  
2001-08-30 09:42:26 51°13.804 2°27.268 -999 -999 -999  
2001-08-30 09:43:26 51°13.963 2°27.554 -999 -999 -999  
2001-08-30 09:44:26 51°14.125 2°27.837 -999 -999 -999  
2001-08-30 09:45:26 51°14.285 2°28.124 -999 -999 -999  
2001-08-30 09:46:26 51°14.443 2°28.413 -999 -999 -999  
2001-08-30 09:47:26 51°14.599 2°28.707 -999 -999 -999  
2001-08-30 09:48:26 51°14.757 2°28.999 -999 -999 -999  
2001-08-30 09:49:26 51°14.914 2°29.294 -999 -999 -999  
2001-08-30 09:50:26 51°15.073 2°29.588 -999 -999 -999  
2001-08-30 09:51:26 51°15.233 2°29.88 -999 -999 -999  
2001-08-30 09:52:26 51°15.394 2°30.171 -999 -999 -999  
2001-08-30 09:53:26 51°15.556 2°30.463 -999 -999 -999  
2001-08-30 09:54:26 51°15.715 2°30.759 -999 -999 -999  
2001-08-30 09:55:26 51°15.876 2°31.054 -999 -999 -999  
2001-08-30 09:56:26 51°16.038 2°31.348 -999 -999 -999  
2001-08-30 09:57:26 51°16.198 2°31.646 -999 -999 -999  
2001-08-30 09:58:26 51°16.359 2°31.944 -999 -999 -999  
2001-08-30 09:59:26 51°16.52 2°32.244 -999 -999 -999  
2001-08-30 10:00:26 51°16.683 2°32.54 -999 -999 -999  
2001-08-30 10:01:26 51°16.848 2°32.833 -999 -999 -999  
2001-08-30 10:02:26 51°16.978 2°33.156 -999 -999 -999  
2001-08-30 10:03:26 51°16.854 2°33.369 -999 -999 -999  
2001-08-30 10:04:26 51°16.655 2°33.504 -999 -999 -999  
2001-08-30 10:05:26 51°16.465 2°33.706 -999 -999 -999  
2001-08-30 10:06:26 51°16.263 2°33.881 -999 -999 -999  
2001-08-30 10:07:26 51°16.064 2°34.07 -999 -999 -999  
2001-08-30 10:08:26 51°15.868 2°34.267 -999 -999 -999  
2001-08-30 10:09:26 51°15.827 2°34.575 -999 -999 -999  
2001-08-30 10:10:26 51°16.016 2°34.804 -999 -999 -999  
2001-08-30 10:11:26 51°16.202 2°35.061 -999 -999 -999  
2001-08-30 10:12:26 51°16.371 2°35.346 -999 -999 -999  
2001-08-30 10:13:26 51°16.537 2°35.638 -999 -999 -999  
2001-08-30 10:14:26 51°16.702 2°35.927 -999 -999 -999  
2001-08-30 10:15:26 51°16.869 2°36.211 -999 -999 -999  
2001-08-30 10:16:26 51°17.034 2°36.497 -999 -999 -999  
2001-08-30 10:17:26 51°17.201 2°36.78 -999 -999 -999  
2001-08-30 10:18:26 51°17.37 2°37.063 -999 -999 -999  
2001-08-30 10:19:26 51°17.535 2°37.359 -999 -999 -999  
2001-08-30 10:20:26 51°17.702 2°37.65 -999 -999 -999  
2001-08-30 10:21:26 51°17.913 2°37.791 -999 -999 -999  
2001-08-30 10:22:26 51°18.039 2°37.542 -999 -999 -999  
2001-08-30 10:23:26 51°18.147 2°37.244 -999 -999 -999  
2001-08-30 10:24:26 51°18.265 2°36.953 -999 -999 -999  
2001-08-30 10:25:26 51°18.379 2°36.665 -999 -999 -999  
2001-08-30 10:26:26 51°18.498 2°36.383 -999 -999 -999  
2001-08-30 10:27:26 51°18.622 2°36.107 -999 -999 -999  
2001-08-30 10:28:26 51°18.744 2°35.827 -999 -999 -999  
2001-08-30 10:29:26 51°18.858 2°35.54 -999 -999 -999  
2001-08-30 10:30:26 51°18.967 2°35.248 -999 -999 -999  
2001-08-30 10:31:26 51°19.138 2°35.054 -999 -999 -999  
2001-08-30 10:32:26 51°19.292 2°35.291 -999 -999 -999  
2001-08-30 10:33:26 51°19.429 2°35.622 -999 -999 -999  
2001-08-30 10:34:26 51°19.58 2°35.94 -999 -999 -999  
2001-08-30 10:35:26 51°19.732 2°36.257 -999 -999 -999  
2001-08-30 10:36:26 51°19.887 2°36.565 -999 -999 -999  
2001-08-30 10:37:26 51°20.042 2°36.874 -999 -999 -999  
2001-08-30 10:38:26 51°20.197 2°37.177 -999 -999 -999  
2001-08-30 10:39:26 51°20.354 2°37.479 -999 -999 -999  
2001-08-30 10:40:26 51°20.506 2°37.788 -999 -999 -999  
2001-08-30 10:41:26 51°20.668 2°38.084 -999 -999 -999  
2001-08-30 10:42:27 51°20.823 2°38.389 -999 -999 -999  
2001-08-30 10:43:27 51°20.978 2°38.69 -999 -999 -999  
2001-08-30 10:44:27 51°21.065 2°39.031 -999 -999 -999  
2001-08-30 10:45:27 51°20.962 2°39.343 -999 -999 -999  
2001-08-30 10:46:27 51°20.87 2°39.684 -999 -999 -999  
2001-08-30 10:47:27 51°20.788 2°40.028 -999 -999 -999  
2001-08-30 10:48:27 51°20.699 2°40.363 -999 -999 -999  
2001-08-30 10:49:27 51°20.605 2°40.699 -999 -999 -999  
2001-08-30 10:50:27 51°20.513 2°41.041 -999 -999 -999  
2001-08-30 10:51:27 51°20.412 2°41.378 -999 -999 -999  
2001-08-30 10:52:27 51°20.308 2°41.718 -999 -999 -999  
2001-08-30 10:53:27 51°20.208 2°42.065 -999 -999 -999  
2001-08-30 10:54:27 51°20.109 2°42.412 -999 -999 -999  
2001-08-30 10:55:27 51°20.012 2°42.753 -999 -999 -999  
2001-08-30 10:56:27 51°19.914 2°43.093 -999 -999 -999  
2001-08-30 10:57:27 51°19.825 2°43.436 -999 -999 -999  
2001-08-30 10:58:27 51°19.752 2°43.786 -999 -999 -999  
2001-08-30 10:59:27 51°19.668 2°44.136 -999 -999 -999  
2001-08-30 11:00:27 51°19.579 2°44.484 -999 -999 -999  
2001-08-30 11:01:27 51°19.477 2°44.819 -999 -999 -999  
2001-08-30 11:02:27 51°19.377 2°45.158 -999 -999 -999  
2001-08-30 11:03:26 51°19.284 2°45.499 -999 -999 -999  
2001-08-30 11:04:27 51°19.193 2°45.859 -999 -999 -999  
2001-08-30 11:05:27 51°19.092 2°46.202 -999 -999 -999  
2001-08-30 11:06:27 51°18.997 2°46.55 -999 -999 -999  
2001-08-30 11:07:27 51°18.915 2°46.901 -999 -999 -999  
2001-08-30 11:08:27 51°18.812 2°47.235 -999 -999 -999  
2001-08-30 11:09:27 51°18.702 2°47.561 -999 -999 -999  
2001-08-30 11:10:27 51°18.606 2°47.904 -999 -999 -999  
2001-08-30 11:11:27 51°18.51 2°48.246 -999 -999 -999  
2001-08-30 11:12:27 51°18.409 2°48.579 -999 -999 -999  
2001-08-30 11:13:27 51°18.309 2°48.911 -999 -999 -999  
2001-08-30 11:14:27 51°18.217 2°49.249 -999 -999 -999  
2001-08-30 11:15:27 51°18.121 2°49.586 -999 -999 -999  
2001-08-30 11:16:27 51°18.026 2°49.921 -999 -999 -999  
2001-08-30 11:17:27 51°17.936 2°50.259 -999 -999 -999  
2001-08-30 11:18:27 51°17.845 2°50.597 -999 -999 -999  
2001-08-30 11:19:27 51°17.758 2°50.936 -999 -999 -999  
2001-08-30 11:20:27 51°17.664 2°51.27 -999 -999 -999  
2001-08-30 11:21:27 51°17.559 2°51.595 -999 -999 -999  
2001-08-30 11:22:27 51°17.457 2°51.921 -999 -999 -999  
2001-08-30 11:23:27 51°17.312 2°52.185 -999 -999 -999  
2001-08-30 11:24:26 51°17.128 2°52.367 -999 -999 -999  
2001-08-30 11:25:27 51°16.937 2°52.553 -999 -999 -999  
2001-08-30 11:26:27 51°16.746 2°52.728 -999 -999 -999  
2001-08-30 11:27:27 51°16.554 2°52.91 -999 -999 -999  
2001-08-30 11:28:27 51°16.362 2°53.092 -999 -999 -999  
2001-08-30 11:29:27 51°16.169 2°53.269 -999 -999 -999  
2001-08-30 11:30:27 51°15.976 2°53.448 -999 -999 -999  
2001-08-30 11:31:27 51°15.784 2°53.632 -999 -999 -999  
2001-08-30 11:32:27 51°15.59 2°53.808 -999 -999 -999  
2001-08-30 11:33:27 51°15.396 2°53.978 -999 -999 -999  
2001-08-30 11:34:27 51°15.204 2°54.153 -999 -999 -999  
2001-08-30 11:35:27 51°15.013 2°54.332 -999 -999 -999  
2001-08-30 11:36:27 51°14.823 2°54.516 -999 -999 -999  
2001-08-30 11:37:27 51°14.631 2°54.698 -999 -999 -999  
2001-08-30 11:38:27 51°14.455 2°54.923 -999 -999 -999  
2001-08-30 11:39:27 51°14.299 2°55.182 -999 -999 -999  
2001-08-30 11:40:27 51°14.156 2°55.381 -999 -999 -999  
2001-08-30 11:41:27 51°14.04 2°55.468 -999 -999 -999  
2001-08-30 11:42:27 51°13.918 2°55.558 -999 -999 -999  
2001-08-30 11:43:27 51°13.808 2°55.639 -999 -999 -999  
2001-08-30 11:44:27 51°13.743 2°55.716 -999 -999 -999  
2001-08-30 11:45:27 51°13.712 2°55.784 -999 -999 -999  
2001-08-30 11:46:27 51°13.703 2°55.808 -999 -999 -999  
2001-08-30 11:47:27 51°13.696 2°55.838 -999 -999 -999  
2001-08-30 11:48:27 51°13.685 2°55.897 -999 -999 -999  
2001-08-30 11:49:27 51°13.678 2°55.919 -999 -999 -999  
2001-08-30 11:50:27 51°13.678 2°55.923 -999 -999 -999